Weather in Emmaboda

Sweden     56°38′02″N   15°32′38″E
temp.,
°C
wind,
m/s
gust,
m/s
humid.,
%
clouds,
%
prec.,
mm/h
press.,
hPa
HPBL,
m
10 may, mon
mon1023:00+9s3995100 0.0 1008157
02:00+10se3988100 0.0 1008172
05:00+11sse31586100 0.0 1007328
08:00+14s51583100 0.1 1007419
11:00+18s51059100 0.1 1007592
14:00+21s5949100 0.1 1007685
17:00+20s584980 0.0 1008715
20:00+15se277292 0.0 1008207
11 may, tue
tue1123:00+11wsw238794 0.0 101045
02:00+11n249742 0.0 101175
05:00+11ne2397100 0.0 101154
08:00+15ne3480100 0.2 1011307
11:00+18e3582100 1.2 1010622
14:00+21se5762100 1.2 10101002
17:00+20se466027 0.0 1009834
20:00+15e41080100 0.0 1009331
12 may, wed
wed1223:00+11e31293100 0.0 1009295
02:00+12ese4129252 0.1 1008366
05:00+10ese399932 0.0 1008242
08:00+14se47785 0.0 1008394
11:00+19se58613 0.0 1008778
14:00+21se58555 0.0 1008901
17:00+20se57585 0.0 1009941
20:00+15ese367492 0.0 1009230
13 may, thu
thu1323:00+12e398882 0.0 1009239
02:00+12e3890100 0.0 1009225
05:00+11e389380 0.0 1008231
08:00+14e487476 0.0 1008375
11:00+18e56430 0.0 10071284
14:00+20e45360 0.0 10061454
17:00+18ene564850 0.0 10051479
20:00+11e37826 0.1 1006465
14 may, fri
fri1423:00+7nne24940 0.0 100687
02:00+7nne31090100 0.0 1005278
05:00+7n388562 0.0 1004291
08:00+9n367995 0.0 1004448
11:00+12nne3465100 0.1 10041089
14:00+13n3464100 0.3 1004953
17:00+15wsw235352 0.1 10041436
20:00+12ssw3776100 0.2 1004299